Nelson, British Columbia

5:13 AM PST on February 26, 2017 (GMT -0800)
Nelson

Weather History for CWNM - May, 2014

Change the Weather History Date:

Saturday, May 3, 2014

  Actual Average (CYCG) Record (CYCG)
Temperature  
Mean Temperature 54 °F -  
Max Temperature 66 °F 60 °F 84 °F (2016)
Min Temperature 42 °F 38 °F 31 °F (2015)
Degree Days  
Heating Degree Days 11    
Growing Degree Days 4 (Base 50)    
Moisture  
Dew Point 41 °F    
Average Humidity 74    
Maximum Humidity 95    
Minimum Humidity 30    
Precipitation  
Precipitation 0.20 in - - ()
Sea Level Pressure  
Sea Level Pressure 29.74 in    
Wind  
Wind Speed 4 mph ()    
Max Wind Speed 16 mph    
Max Gust Speed 25 mph    
Averages and records for this station are not official NWS values.
T = Trace of Precipitation, MM = Missing Value Source: Averaged Metar Reports

Daily Weather History Graph

Daily Weather History Graph

Search for Another Location

Airport or City:

Trip Planner

Search our weather history database for the weather conditions in past years. The results will help you decide how hot, cold, wet, or windy it might be!

Date:

Astronomy

May. 03, 2014 Rise Set
Actual Time 5:23 AM PDT 8:09 PM PDT
Civil Twilight 4:46 AM PDT 8:46 PM PDT
Nautical Twilight 4:00 AM PDT 9:33 PM PDT
Astronomical Twilight 3:04 AM PDT 10:30 PM PDT
Moon 8:52 AM PDT (5/3) No Moon Set
Length of Visible Light 15h 59m
Length of Day
14h 46m
Waxing Crescent, 20% of the Moon is Illuminated
May 3
Waxing Crescent
May 6
First Quarter
May 14
Full
May 21
Last Quarter
May 28
New

Hourly Weather History & Observations

Time (PDT) Temp. Windchill Dew Point Humidity Pressure Visibility Wind Dir Wind Speed Gust Speed Precip Events Conditions
12:00 AM 47.3 °F - 42.1 °F 82% 29.72 in - West 2.3 mph - N/A   Unknown
1:00 AM 47.7 °F - 42.3 °F 82% 29.73 in - NNE 2.3 mph - N/A   Unknown
2:00 AM 45.1 °F - 40.8 °F 85% 29.74 in - SSW 2.3 mph - 0.01 in   Unknown
3:00 AM 44.4 °F - 40.3 °F 85% 29.74 in - WSW 2.3 mph - N/A   Unknown
4:00 AM 43.2 °F - 38.3 °F 83% 29.74 in - SW 2.3 mph - N/A   Unknown
5:00 AM 44 °F - 40 °F 81% 29.74 in - ENE 3.5 mph - -  
5:00 AM 44.1 °F 42.5 °F 38.3 °F 80% 29.74 in - ENE 3.5 mph - N/A   Unknown
6:00 AM 43.2 °F - 38.3 °F 83% 29.74 in - NNE 2.3 mph - N/A   Unknown
7:00 AM 46.0 °F 43.9 °F 41.4 °F 84% 29.73 in - East 4.6 mph - N/A   Unknown
8:00 AM 48.4 °F - 41.5 °F 77% 29.71 in - NE 3.5 mph - N/A   Unknown
9:00 AM 49.1 °F - 43.3 °F 81% 29.70 in - NE 8.1 mph - N/A   Unknown
10:00 AM 51.4 °F - 41.9 °F 70% 29.68 in - NE 10.4 mph - N/A   Unknown
11:00 AM 52 °F - 44 °F 68% 29.68 in - East 3.5 mph - -  
11:00 AM 51.6 °F - 44.4 °F 76% 29.68 in - East 3.5 mph - N/A   Unknown
12:00 PM 54.3 °F - 46.9 °F 76% 29.66 in - NE 10.4 mph 18.4 mph N/A   Unknown
1:00 PM 62.8 °F - 39.2 °F 42% 29.64 in - SSE 8.1 mph 17.3 mph N/A   Unknown
2:00 PM 65.5 °F - 33.3 °F 30% 29.63 in - South 8.1 mph 17.3 mph N/A   Unknown
3:00 PM 58.1 °F - 36.7 °F 45% 29.73 in - SW 16.1 mph 25.3 mph N/A   Unknown
4:00 PM 57.0 °F - 38.7 °F 50% 29.76 in - SW 8.1 mph - N/A   Unknown
5:00 PM 57 °F - 38 °F 37% 29.76 in - NE 9.2 mph - -  
5:00 PM 56.7 °F - 37.9 °F 50% 29.76 in - NE 9.2 mph - N/A   Unknown
6:00 PM 50.0 °F - 43.5 °F 78% 29.82 in - NNE 3.5 mph - 0.01 in   Unknown
7:00 PM 47.5 °F - 45.3 °F 92% 29.83 in - North 2.3 mph - 0.02 in   Unknown
8:00 PM 46.6 °F - 44.6 °F 93% 29.83 in - ENE 4.6 mph - 0.05 in   Unknown
9:00 PM 46.0 °F - 44.1 °F 93% 29.84 in - East 2.3 mph - 0.06 in   Unknown
10:00 PM 45.7 °F - 44.2 °F 95% 29.84 in - North 1.2 mph - 0.06 in   Unknown
11:00 PM 45 °F - 43 °F 91% 29.83 in - South 1.2 mph - -  
11:00 PM 44.6 °F - 43.2 °F 95% 29.83 in - South 1.2 mph - N/A   Unknown